Location: NJAA Observatory
(40.6819°N, 74.8979°W)
Time: 17:05:08
(UTC-04:00)

Iridium 4 - Visible Passes

Search period start: 23 August 2016 00:00
Search period end: 02 September 2016 00:00
Orbit: 773 x 776 km, 86.4° (Epoch: 23 August)

Date Brightness Start Highest point End Pass type
(mag) Time Alt. Az. Time Alt. Az. Time Alt. Az.
23 Aug 8.5 21:30:05 10° NW 21:32:30 13° WNW 21:34:55 10° WSW visible
24 Aug 7.9 20:54:16 10° NNW 20:58:26 25° W 21:02:37 10° SW visible
25 Aug 6.8 20:19:19 10° NNW 20:24:17 46° W 20:29:13 10° SSW visible
27 Aug 8.4 20:52:14 10° NW 20:55:45 19° W 20:59:15 10° WSW visible
28 Aug 7.5 20:16:59 10° NNW 20:21:38 34° W 20:26:16 10° SSW visible
30 Aug 8.7 20:50:33 10° NW 20:53:01 13° WNW 20:55:28 10° WSW visible
31 Aug 8.1 20:14:46 10° NNW 20:18:57 25° W 20:23:09 10° SW visible
